Location: Brunswick Center
(42.7570°N, 73.6162°W)
Time: 17:03:21
(UTC+00:00)

Daily predictions for brighter satellites

Satellite Brightness Start Highest point End
(mag) Time Altitude Azimuth Time Altitude Azimuth Time Altitude Azimuth
USA 32 4.1 22:23:30 10° S 22:28:43 86° E 22:33:59 10° N
ATLAS CENTAUR R/B 1.5 22:26:12 10° NNW 22:30:04 45° NE 22:33:38 10° SE
Cosmos 1703 3.6 22:26:36 10° SSE 22:30:23 45° E 22:34:12 10° NNE
SL-8 Rocket 4.0 22:25:58 10° S 22:32:12 68° E 22:38:26 10° NNE
Cosmos 1455 2.2 22:28:33 10° N 22:32:19 59° E 22:36:01 10° SSE
Meteor 1-21 Rocket 4.4 22:26:59 10° SSW 22:32:37 81° W 22:38:24 10° N
Cosmos 1727 Rocket 4.4 22:26:56 10° N 22:32:39 38° ENE 22:38:20 10° SE
Iridium 96 3.7 22:31:17 10° N 22:33:47 59° E 22:36:24 10° SSE
Cosmos 1953 Rocket 3.6 22:32:19 10° S 22:36:47 73° E 22:41:16 10° NNE
Cosmos 1758 Rocket 4.2 22:36:23 10° SSW 22:40:38 58° W 22:44:55 10° N
Cosmos 1842 Rocket 4.4 22:38:54 10° NNE 22:42:49 29° ENE 22:46:42 10° SE
COSMO-SKYMED 1 2.9 22:39:06 10° NNE 22:43:17 46° E 22:47:27 10° S
CSL-04 Rocket 4.3 22:43:20 10° SE 22:48:19 36° ENE 22:53:20 10° N
USA 267 3.6 22:42:24 10° NE 22:48:52 66° NW 22:55:19 10° WSW
SMAP 4.2 22:45:36 10° S 22:50:05 48° W 22:54:37 10° NNW
USA 102 4.3 22:46:54 10° SSE 22:51:54 87° WSW 22:55:59 10° NNW
Cosmos 1356 Rocket 3.5 22:48:56 10° N 22:52:54 49° ENE 22:56:55 10° SSE
CENTAUR R/B 4.2 22:53:13 10° ESE 22:54:31 11° E 22:55:13 10° E
CZ-2D R/B 4.2 22:53:11 10° SE 22:56:25 26° ENE 22:59:40 10° NNE
BREEZE-M DEB (TANK) 2.7 22:56:10 10° W 22:58:24 44° NNW 23:00:14 15° NE
USA 116 4.1 22:56:13 10° NE 22:58:52 27° E 23:01:37 10° SSE
DELTA 2 R/B (1) 4.5 22:54:34 10° W 22:59:54 47° SSW 23:05:15 10° SE
YAOGAN 6 2.6 22:57:40 10° S 23:01:21 84° WSW 23:04:59 10° NNW
NOSS 3-2 (A) 4.2 22:58:52 10° S 23:03:38 28° ESE 23:07:34 15° ENE
Meteor 2-10 Rocket 3.9 22:58:34 10° NNW 23:03:44 67° W 23:08:43 10° S
Cosmos 1821 Rocket 4.4 23:00:59 10° SSE 23:06:48 40° E 23:12:35 10° NNE
Ariane Rocket 4.1 23:03:25 10° ESE 23:07:20 23° ENE 23:11:17 10° NNE
Cosmos 2221 2.9 23:04:12 10° N 23:08:14 38° ENE 23:12:15 10° SE
Cosmos 1939 Rocket 3.2 23:07:35 10° SE 23:11:16 40° ENE 23:15:02 10° N
SL-8 R/B 4.4 23:06:41 10° WNW 23:11:18 43° N 23:14:26 19° ENE
Meteor 2-12 Rocket 4.4 23:05:27 10° S 23:11:22 61° E 23:17:19 10° NNE
CZ-4 R/B 4.3 23:07:51 10° SSE 23:11:58 83° ENE 23:16:07 10° N
Cosmos 1076 Rocket 4.4 23:08:26 10° SSE 23:12:03 27° E 23:14:53 14° NE
ATLAS 5 CENTAUR R/B 4.3 23:08:15 10° NNW 23:12:57 35° NE 23:28:12 10° ESE
Cosmos 614 Rocket 4.4 23:11:57 10° N 23:16:51 39° ENE 23:21:44 10° SE
Cosmos 44 Rocket 3.2 23:12:34 10° SSW 23:17:22 81° ESE 23:21:27 14° NE
USA 234 3.3 23:15:59 10° SE 23:22:33 90° SW 23:29:07 10° NW
SL-16 R/B 3.4 23:17:39 10° NW 23:23:02 45° WSW 23:28:22 10° S
Cosmos 2098 4.3 23:23:30 10° S 23:26:38 69° E 23:30:30 10° NNE
Cosmos 2227 4.2 23:22:05 10° SSW 23:27:46 67° ESE 23:33:07 12° NNE
Cosmos 2056 Rocket 4.0 23:23:13 10° SSE 23:28:03 38° ESE 23:31:00 21° NE
Starlink AS 4.3 23:27:04 10° NNW 23:29:10 23° NNE 23:29:10 23° NNE
ADEOS Rocket 3.6 23:22:53 10° NNE 23:29:38 49° E 23:36:54 10° S
Starlink BA 4.3 23:27:17 10° NNW 23:29:23 23° NNE 23:29:23 23° NNE
Starlink AU 4.3 23:27:31 10° NNW 23:29:37 23° NNE 23:29:37 23° NNE
Starlink AT 4.3 23:27:46 10° NNW 23:29:51 23° N 23:29:51 23° N
Starlink BB 4.3 23:27:57 10° NNW 23:30:02 23° N 23:30:02 23° N
Starlink T 4.3 23:27:50 10° NW 23:30:35 26° NNE 23:30:35 26° NNE
Starlink BC 4.3 23:28:12 10° NNW 23:30:16 23° N 23:30:16 23° N
Starlink BK 4.3 23:28:25 10° NNW 23:30:29 23° N 23:30:29 23° N
Starlink AY 4.3 23:28:37 10° NNW 23:30:40 23° N 23:30:40 23° N
Starlink AW 4.3 23:28:52 10° NNW 23:30:55 23° N 23:30:55 23° N
SKYMED 2 4.4 23:27:06 10° N 23:31:21 52° WNW 23:35:33 10° SSW
Starlink BJ 4.3 23:29:03 10° NNW 23:31:06 23° N 23:31:06 23° N
Starlink AV 4.3 23:29:19 10° NNW 23:31:21 23° N 23:31:21 23° N
Starlink BD 4.3 23:29:32 10° NNW 23:31:34 23° N 23:31:34 23° N
Cosmos 2058 3.4 23:28:19 10° SSE 23:32:06 36° E 23:32:55 33° ENE
Starlink BE 4.3 23:29:42 10° NW 23:31:47 23° N 23:31:47 23° N
Starlink BM 4.3 23:29:58 10° NNW 23:31:59 23° N 23:31:59 23° N
Starlink AX 4.3 23:30:12 10° NNW 23:32:12 23° N 23:32:12 23° N
Starlink N 4.3 23:29:58 10° NW 23:32:39 26° NNE 23:32:39 26° NNE
Starlink BH 4.3 23:30:25 10° NNW 23:32:25 23° N 23:32:25 23° N
Starlink AZ 4.3 23:30:39 10° NW 23:32:38 23° N 23:32:38 23° N
Starlink BG 4.3 23:30:52 10° NW 23:32:51 23° N 23:32:51 23° N
Starlink BF 4.3 23:31:05 10° NW 23:33:04 23° N 23:33:04 23° N
Cosmos 2297 Rocket 4.5 23:29:35 10° W 23:33:40 20° NW 23:37:46 10° N
Okean-O 4.4 23:29:38 10° SSW 23:33:41 34° W 23:37:45 10° NNW
Starlink BL 4.3 23:31:16 10° NW 23:33:18 24° N 23:33:18 24° N
STARLINK-67 2.7 23:31:28 10° SW 23:33:40 52° S 23:33:40 52° S
Starlink AH 4.3 23:31:33 10° NW 23:33:31 23° N 23:33:31 23° N
Starlink AC 4.3 23:31:47 10° NW 23:33:44 23° N 23:33:44 23° N
Starlink X 4.3 23:31:59 10° NW 23:33:57 23° N 23:33:57 23° N
Starlink AE 4.3 23:32:10 10° NW 23:34:12 24° N 23:34:12 24° N
Starlink Z 4.3 23:32:27 10° NW 23:34:24 23° N 23:34:24 23° N
Starlink AK 4.3 23:32:40 10° NW 23:34:35 23° N 23:34:35 23° N
Starlink Q 4.2 23:32:20 10° NW 23:34:56 27° NNE 23:34:56 27° NNE
Starlink AQ 4.3 23:32:47 10° NW 23:34:44 23° N 23:34:44 23° N
Starlink AL 4.3 23:32:52 10° NW 23:34:47 23° N 23:34:47 23° N
Starlink AD 4.3 23:33:07 10° NW 23:35:01 23° N 23:35:01 23° N
Cosmos 2123 Rocket 4.4 23:29:56 10° N 23:35:47 39° ENE 23:41:35 10° SE
Cosmos 1934 Rocket 4.3 23:30:28 10° SSE 23:36:03 40° E 23:41:39 10° NNE
Starlink Y 4.3 23:33:34 10° NW 23:35:28 23° N 23:35:28 23° N
Starlink AG 4.3 23:33:47 10° NW 23:35:40 23° N 23:35:40 23° N
Cosmos 1603 3.6 23:30:49 10° NNW 23:36:29 67° ENE 23:42:03 10° SSE
Starlink W 4.3 23:33:58 10° NW 23:35:55 24° N 23:35:55 24° N
Starlink AJ 4.3 23:34:14 10° NW 23:36:06 23° N 23:36:06 23° N
Cosmos 2263 Rocket 2.1 23:31:37 10° S 23:37:05 61° ESE 23:41:04 19° NE
Starlink AM 4.3 23:34:39 10° NW 23:36:31 23° N 23:36:31 23° N
Starlink P 4.2 23:34:33 10° NW 23:37:05 27° NNE 23:37:05 27° NNE
Starlink AP 4.3 23:34:54 10° NW 23:36:45 23° N 23:36:45 23° N
Starlink AA 4.3 23:35:07 10° NW 23:36:58 23° N 23:36:58 23° N
Starlink AF 4.3 23:35:21 10° NW 23:37:12 23° N 23:37:12 23° N
Starlink AB 4.3 23:35:33 10° NW 23:37:23 23° N 23:37:23 23° N
Starlink AN 4.4 23:35:47 10° NW 23:37:37 23° N 23:37:37 23° N
Starlink U 4.3 23:36:47 10° NW 23:39:14 27° N 23:39:14 27° N
Cosmos 1000 Rocket 4.4 23:34:11 10° N 23:40:24 70° E 23:46:38 10° SSE
OAO 3 Rocket 4.5 23:36:30 10° SW 23:40:26 27° S 23:42:05 22° SE
Starlink B 4.3 23:39:00 10° NW 23:41:24 28° N 23:41:24 28° N
YAOGAN 1 2.9 23:38:37 10° S 23:42:54 66° WSW 23:47:14 10° NNW
Cosmos 2239 Rocket 4.4 23:37:40 10° S 23:43:56 68° E 23:50:13 10° NNE
USA 238 DEB 3.6 23:38:00 10° SSW 23:44:34 66° ESE 23:48:53 24° NE
USA 238 3.6 23:38:08 10° SSW 23:44:41 65° ESE 23:48:57 24° NE
ISS -1.7 23:43:00 10° NW 23:45:25 18° N 23:45:31 18° N
Cosmos 1140 Rocket 3.7 23:41:22 10° N 23:46:26 45° ENE 23:48:01 35° ESE
NOAA 11 4.4 23:41:24 10° S 23:46:54 75° WSW 23:52:24 10° NNW
CZ-4 R/B 3.1 23:51:54 10° SSW 23:55:40 35° W 23:59:30 10° NNW
